Location: St. Louis
(38.6270°N, 90.1994°W)
Time: 17:43:55
(UTC-05:00)

ISS - Pass Details

Date: 30 October 2013
Orbit: 402 x 404 km, 51.6° (Epoch: 25 May)

Event Time Altitude Azimuth Distance (km) Brightness Sun altitude
Rises 19:20:11 0° 298° (WNW) 2,355 1.5 -15.6°
Reaches altitude 10° 19:22:29 10° 286° (WNW) 1,486 0.6 -16.1°
Maximum altitude 19:25:20 26° 227° (SW) 848 -1.1 -16.6°
Drops below altitude 10° 19:28:09 10° 169° (SSE) 1,470 -0.6 -17.2°
Enters shadow 19:28:55 - 163° (SSE) 1,748 -0.2 -17.3°
